TimeEST,TemperatureF,Dew PointF,Humidity,Sea Level PressureIn,VisibilityMPH,Wind Direction,Wind SpeedMPH,Gust SpeedMPH,PrecipitationIn,Events,Conditions,WindDirDegrees,DateUTC
12:51 AM,27.0,23.0,85,29.90,8.0,Calm,Calm,-,N/A,,Overcast,0,2013-02-24 05:51:00
1:51 AM,28.0,23.0,81,29.90,9.0,NW,3.5,-,N/A,,Overcast,320,2013-02-24 06:51:00
2:51 AM,28.0,21.9,78,29.91,9.0,WNW,3.5,-,0.00,Snow,Light Snow,300,2013-02-24 07:51:00
3:51 AM,28.0,21.9,78,29.92,7.0,WNW,4.6,-,0.00,Snow,Light Snow,290,2013-02-24 08:51:00
4:51 AM,28.0,21.0,75,29.93,8.0,NW,6.9,-,0.00,Snow,Light Snow,310,2013-02-24 09:51:00
5:51 AM,27.0,19.0,72,29.93,9.0,NW,9.2,-,0.00,Snow,Light Snow,310,2013-02-24 10:51:00
6:51 AM,27.0,19.0,72,29.95,9.0,West,4.6,-,0.00,Snow,Light Snow,280,2013-02-24 11:51:00
7:51 AM,27.0,19.9,75,29.97,7.0,WNW,6.9,-,0.00,Snow,Light Snow,300,2013-02-24 12:51:00
8:15 AM,26.6,19.4,74,29.93,2.0,WNW,6.9,-,0.00,Snow,Light Snow,300,2013-02-24 13:15:00
8:51 AM,26.1,19.9,78,29.99,1.5,WNW,4.6,-,0.00,Snow,Light Snow,300,2013-02-24 13:51:00
9:51 AM,26.1,21.0,81,30.01,1.5,WNW,8.1,-,0.00,Snow,Light Snow,300,2013-02-24 14:51:00
10:12 AM,26.6,21.2,80,29.96,3.0,WNW,9.2,-,0.00,Snow,Light Snow,290,2013-02-24 15:12:00
10:51 AM,28.0,21.0,75,30.01,5.0,West,10.4,-,0.00,Snow,Light Snow,270,2013-02-24 15:51:00
11:25 AM,28.4,19.4,69,29.97,9.0,WSW,12.7,-,0.00,Snow,Light Snow,250,2013-02-24 16:25:00
11:51 AM,28.9,19.0,67,30.03,10.0,West,11.5,-,0.00,Snow,Light Snow,270,2013-02-24 16:51:00
12:51 PM,28.9,19.0,67,30.03,9.0,West,10.4,-,0.00,Snow,Light Snow,260,2013-02-24 17:51:00
1:51 PM,30.0,19.9,66,30.03,9.0,WNW,11.5,-,0.00,Snow,Light Snow,290,2013-02-24 18:51:00
2:51 PM,30.9,19.0,61,30.04,9.0,West,12.7,-,0.00,Snow,Light Snow,260,2013-02-24 19:51:00
3:51 PM,30.9,19.0,61,30.06,10.0,West,12.7,-,0.00,,Overcast,270,2013-02-24 20:51:00
4:26 PM,30.2,19.4,64,30.02,10.0,West,8.1,-,N/A,,Overcast,260,2013-02-24 21:26:00
4:51 PM,30.9,19.0,61,30.07,10.0,WNW,9.2,-,N/A,,Overcast,290,2013-02-24 21:51:00
5:20 PM,30.2,19.4,64,30.04,10.0,WNW,11.5,17.3,N/A,,Overcast,300,2013-02-24 22:20:00
5:51 PM,30.0,21.0,69,30.09,9.0,WNW,6.9,-,0.00,Snow,Light Snow,300,2013-02-24 22:51:00
6:51 PM,30.0,21.0,69,30.12,9.0,West,5.8,-,0.00,,Overcast,280,2013-02-24 23:51:00
7:18 PM,28.4,21.2,74,30.09,10.0,WSW,3.5,-,N/A,,Mostly Cloudy,250,2013-02-25 00:18:00
7:51 PM,28.9,21.0,72,30.14,10.0,Calm,Calm,-,N/A,,Mostly Cloudy,0,2013-02-25 00:51:00
8:51 PM,28.9,21.9,75,30.15,10.0,Calm,Calm,-,N/A,,Overcast,0,2013-02-25 01:51:00
9:07 PM,28.4,21.2,74,30.10,6.0,Calm,Calm,-,0.00,Snow,Light Snow,0,2013-02-25 02:07:00
9:51 PM,28.9,23.0,78,30.15,9.0,Calm,Calm,-,0.00,,Overcast,0,2013-02-25 02:51:00
10:51 PM,28.9,23.0,78,30.14,8.0,Calm,Calm,-,0.00,Snow,Light Snow,0,2013-02-25 03:51:00
11:22 PM,28.4,21.2,74,30.10,8.0,SW,3.5,-,0.00,Snow,Light Snow,220,2013-02-25 04:22:00
11:51 PM,27.0,21.9,81,30.15,9.0,Calm,Calm,-,0.00,,Mostly Cloudy,0,2013-02-25 04:51:00